1547834400.03,56743,0.0,0.0,-16.87,-17.79,-17.79,0,*6B
1547834401.32,56744,0.0,0.0,-16.87,-17.79,-17.79,0,*6C
1547834402.57,56745,0.0,0.0,-16.87,-17.83,-17.83,0,*6D
1547834403.84,56746,0.0,0.0,-16.87,-17.83,-17.93,0,*6F
1547834405.08,56747,0.0,0.0,-16.87,-17.83,-17.83,0,*6F
1547834406.38,56748,0.0,0.0,-16.87,-17.93,-17.97,0,*64
1547834407.6,56749,0.0,0.0,-16.85,-17.83,-17.83,0,*63
1547834408.84,56750,0.0,0.0,-16.85,-17.83,-17.93,0,*6A
1547834410.1,56751,0.0,0.0,-16.87,-17.73,-17.79,0,*62
1547834411.34,56752,0.0,0.0,-16.87,-17.73,-17.73,0,*6B
1547834412.64,56753,0.0,0.0,-16.87,-17.59,-17.59,0,*6A
1547834413.92,56754,0.0,0.0,-16.87,-17.63,-17.63,0,*6D
1547834415.21,56755,0.0,0.0,-16.87,-17.63,-17.63,0,*6C
1547834416.47,56756,0.0,0.0,-16.87,-17.73,-17.63,0,*6E
1547834417.76,56757,0.0,0.0,-16.87,-17.63,-17.63,0,*6E
1547834419.02,56758,0.0,0.0,-16.87,-17.63,-17.73,0,*60
1547834420.28,56759,0.0,0.0,-16.87,-17.73,-17.63,0,*61
1547834421.52,56760,0.0,0.0,-16.87,-17.73,-17.73,0,*6A
1547834422.78,56761,0.0,0.0,-16.85,-17.79,-17.79,0,*69
1547834424.05,56762,0.0,0.0,-16.87,-17.83,-17.93,0,*69
1547834425.32,56763,0.0,0.0,-16.87,-17.93,-17.83,0,*68
1547834426.56,56764,0.0,0.0,-16.87,-17.73,-17.73,0,*6E
1547834427.79,56765,0.0,0.0,-16.85,-17.79,-17.73,0,*67
1547834429.03,56766,0.0,0.0,-16.85,-17.73,-17.63,0,*6F
1547834430.26,56767,0.0,0.0,-16.87,-17.73,-17.73,0,*6D
1547834431.5,56768,0.0,0.0,-16.85,-17.59,-17.73,0,*68
1547834432.76,56769,0.0,0.0,-16.85,-17.63,-17.59,0,*68
1547834434.0,56770,0.0,0.0,-16.85,-17.63,-17.73,0,*68
1547834435.26,56771,0.0,0.0,-16.87,-17.63,-17.73,0,*6B
1547834436.47,56772,0.0,0.0,-16.85,-17.73,-17.73,0,*6B
1547834437.73,56773,0.0,0.0,-16.85,-17.79,-17.79,0,*6A
1547834438.99,56774,0.0,0.0,-16.85,-17.79,-17.79,0,*6D
1547834440.23,56775,0.0,0.0,-16.87,-17.73,-17.73,0,*6E
1547834441.46,56776,0.0,0.0,-16.85,-17.63,-17.73,0,*6E
1547834442.75,56777,0.0,0.0,-16.87,-17.79,-17.79,0,*6C
1547834443.96,56778,0.0,0.0,-16.85,-17.73,-17.73,0,*61
1547834445.25,56779,0.0,0.0,-16.87,-17.59,-17.63,0,*6B
1547834446.51,56780,0.0,0.0,-16.85,-17.63,-17.59,0,*6F
1547834447.74,56781,0.0,0.0,-16.85,-17.63,-17.73,0,*66
1547834448.98,56782,0.0,0.0,-16.85,-17.63,-17.73,0,*65
1547834450.21,56783,0.0,0.0,-16.85,-17.63,-17.73,0,*64
1547834451.42,56784,0.0,0.0,-16.85,-17.73,-17.73,0,*62
1547834452.66,56785,0.0,0.0,-16.85,-17.79,-17.73,0,*69
1547834453.89,56786,0.0,0.0,-16.85,-17.63,-17.73,0,*61
1547834455.15,56787,0.0,0.0,-16.85,-17.79,-17.79,0,*61
1547834456.38,56788,0.0,0.0,-16.85,-17.79,-17.73,0,*64
1547834457.6,56789,0.0,0.0,-16.83,-17.73,-17.69,0,*62
1547834458.85,56790,0.0,0.0,-16.83,-17.73,-17.79,0,*6B
1547834460.1,56791,0.0,0.0,-16.83,-17.87,-17.79,0,*61
1547834461.34,56792,0.0,0.0,-16.85,-17.83,-17.93,0,*64
1547834462.61,56793,0.0,0.0,-16.87,-17.97,-17.83,0,*63
1547834463.86,56794,0.0,0.0,-16.85,-17.93,-17.83,0,*62
1547834465.12,56795,0.0,0.0,-16.85,-17.93,-17.93,0,*62
1547834466.36,56796,0.0,0.0,-16.85,-17.93,-18.07,0,*63
1547834467.64,56797,0.0,0.0,-16.87,-17.97,-18.11,0,*63
1547834468.91,56798,0.0,0.0,-16.85,-17.97,-17.97,0,*6F
1547834470.21,56799,0.0,0.0,-16.87,-17.93,-17.97,0,*68
1547834471.45,56800,0.0,0.0,-16.85,-17.97,-18.07,0,*67
1547834472.69,56801,0.0,0.0,-16.87,-18.11,-18.21,0,*61
1547834473.98,56802,0.0,0.0,-16.87,-17.97,-17.93,0,*65
1547834475.28,56803,0.0,0.0,-16.87,-17.97,-17.97,0,*60
1547834476.58,56804,0.0,0.0,-16.87,-17.93,-17.97,0,*63
1547834477.8,56805,0.0,0.0,-16.85,-17.83,-17.83,0,*64
1547834479.07,56806,0.0,0.0,-16.89,-17.93,-17.93,0,*6B
1547834480.34,56807,0.0,0.0,-16.87,-17.93,-17.83,0,*65
1547834481.58,56808,0.0,0.0,-16.85,-17.83,-17.93,0,*68
1547834482.82,56809,0.0,0.0,-16.85,-17.83,-17.93,0,*69
1547834484.04,56810,0.0,0.0,-16.85,-17.83,-17.83,0,*60
1547834485.29,56811,0.0,0.0,-16.87,-17.83,-17.83,0,*63
1547834486.52,56812,0.0,0.0,-16.87,-17.73,-17.73,0,*60
1547834487.79,56813,0.0,0.0,-16.87,-17.73,-17.79,0,*6B
1547834489.05,56814,0.0,0.0,-16.85,-17.79,-17.79,0,*64
1547834490.33,56815,0.0,0.0,-16.87,-17.79,-17.63,0,*6C
1547834491.6,56816,0.0,0.0,-16.87,-17.73,-17.79,0,*6E
1547834492.86,56817,0.0,0.0,-16.85,-17.79,-17.79,0,*67
1547834494.12,56818,0.0,0.0,-16.87,-17.79,-17.73,0,*60
1547834495.38,56819,0.0,0.0,-16.87,-17.63,-17.73,0,*6A
1547834496.64,56820,0.0,0.0,-16.85,-17.63,-17.63,0,*63
1547834497.93,56821,0.0,0.0,-16.87,-17.59,-17.63,0,*69
1547834499.22,56822,0.0,0.0,-16.87,-17.59,-17.63,0,*6A
1547834500.51,56823,0.0,0.0,-16.87,-17.63,-17.63,0,*62
1547834501.79,56824,0.0,0.0,-16.87,-17.63,-17.63,0,*65
1547834503.09,56825,0.0,0.0,-16.87,-17.59,-17.59,0,*64
1547834504.34,56826,0.0,0.0,-16.85,-17.63,-17.63,0,*65
1547834505.6,56827,0.0,0.0,-16.87,-17.63,-17.73,0,*67
1547834506.9,56828,0.0,0.0,-16.87,-17.59,-17.59,0,*69
1547834508.14,56829,0.0,0.0,-16.85,-17.59,-17.73,0,*62
1547834509.43,56830,0.0,0.0,-16.87,-17.59,-17.59,0,*60
1547834510.72,56831,0.0,0.0,-16.87,-17.63,-17.63,0,*61
1547834511.98,56832,0.0,0.0,-16.87,-17.63,-17.73,0,*63
1547834513.21,56833,0.0,0.0,-16.85,-17.59,-17.73,0,*69
1547834514.5,56834,0.0,0.0,-16.87,-17.59,-17.63,0,*6D
1547834515.79,56835,0.0,0.0,-16.87,-17.63,-17.63,0,*65
1547834517.05,56836,0.0,0.0,-16.85,-17.63,-17.59,0,*6D
1547834518.31,56837,0.0,0.0,-16.85,-17.63,-17.63,0,*65
1547834519.57,56838,0.0,0.0,-16.85,-17.63,-17.63,0,*6A
1547834520.82,56839,0.0,0.0,-16.83,-17.55,-17.69,0,*62
1547834522.05,56840,0.0,0.0,-16.85,-17.73,-17.63,0,*64
1547834523.29,56841,0.0,0.0,-16.85,-17.79,-17.73,0,*6E
1547834524.53,56842,0.0,0.0,-16.85,-17.83,-17.79,0,*62
1547834525.75,56843,0.0,0.0,-16.85,-17.83,-17.83,0,*66
1547834526.99,56844,0.0,0.0,-16.85,-17.79,-17.83,0,*64
1547834528.25,56845,0.0,0.0,-16.85,-17.63,-17.79,0,*6B
1547834529.5,56846,0.0,0.0,-16.87,-17.73,-17.83,0,*6E
1547834530.72,56847,0.0,0.0,-16.85,-17.73,-17.83,0,*6D
1547834531.94,56848,0.0,0.0,-16.85,-17.83,-17.83,0,*6D
1547834533.16,56849,0.0,0.0,-16.85,-17.83,-17.83,0,*6C
1547834534.38,56850,0.0,0.0,-16.85,-17.83,-17.83,0,*64
1547834535.63,56851,0.0,0.0,-16.87,-17.83,-17.83,0,*67
1547834536.89,56852,0.0,0.0,-16.87,-17.83,-17.93,0,*65
1547834538.12,56853,0.0,0.0,-16.85,-17.83,-17.83,0,*67
1547834539.38,56854,0.0,0.0,-16.85,-17.79,-17.63,0,*6B
1547834540.66,56855,0.0,0.0,-16.87,-17.79,-17.63,0,*68
1547834541.9,56856,0.0,0.0,-16.85,-17.63,-17.73,0,*63
1547834543.13,56857,0.0,0.0,-16.85,-17.63,-17.73,0,*62
1547834544.42,56858,0.0,0.0,-16.87,-17.79,-17.79,0,*6E
1547834545.65,56859,0.0,0.0,-16.85,-17.73,-17.79,0,*67
1547834546.89,56860,0.0,0.0,-16.85,-17.73,-17.79,0,*6D
1547834548.15,56861,0.0,0.0,-16.85,-17.79,-17.63,0,*6D
1547834549.39,56862,0.0,0.0,-16.85,-17.73,-17.63,0,*64
1547834550.66,56863,0.0,0.0,-16.85,-17.59,-17.59,0,*64
1547834551.91,56864,0.0,0.0,-16.85,-17.63,-17.63,0,*63
1547834553.18,56865,0.0,0.0,-16.85,-17.63,-17.59,0,*6B
1547834554.44,56866,0.0,0.0,-16.85,-17.63,-17.63,0,*61
1547834555.67,56867,0.0,0.0,-16.87,-17.73,-17.73,0,*62
1547834556.93,56868,0.0,0.0,-16.85,-17.79,-17.79,0,*6F
1547834558.17,56869,0.0,0.0,-16.85,-17.79,-17.73,0,*64
1547834559.43,56870,0.0,0.0,-16.85,-17.79,-17.63,0,*6D
1547834560.69,56871,0.0,0.0,-16.85,-17.63,-17.63,0,*67
1547834561.9,56872,0.0,0.0,-16.85,-17.73,-17.73,0,*64
1547834563.16,56873,0.0,0.0,-16.85,-17.59,-17.63,0,*6C
1547834564.4,56874,0.0,0.0,-16.85,-17.63,-17.73,0,*63
1547834565.66,56875,0.0,0.0,-16.85,-17.79,-17.79,0,*63
1547834566.89,56876,0.0,0.0,-16.85,-17.73,-17.79,0,*6A
1547834568.15,56877,0.0,0.0,-16.85,-17.79,-17.79,0,*61
1547834569.44,56878,0.0,0.0,-16.87,-17.79,-17.79,0,*6C
1547834570.65,56879,0.0,0.0,-16.85,-17.73,-17.73,0,*6F
1547834571.89,56880,0.0,0.0,-16.85,-17.73,-17.79,0,*63
1547834573.15,56881,0.0,0.0,-16.85,-17.79,-17.79,0,*68
1547834574.38,56882,0.0,0.0,-16.85,-17.79,-17.73,0,*61
1547834575.62,56883,0.0,0.0,-16.81,-17.73,-17.73,0,*6E
1547834576.89,56884,0.0,0.0,-16.85,-17.93,-17.97,0,*69
1547834578.16,56885,0.0,0.0,-16.85,-17.97,-17.97,0,*6C
1547834579.43,56886,0.0,0.0,-16.85,-17.97,-17.93,0,*6B
1547834580.65,56887,0.0,0.0,-16.85,-17.83,-17.83,0,*6E
1547834581.9,56888,0.0,0.0,-16.85,-17.93,-17.83,0,*60
1547834583.16,56889,0.0,0.0,-16.87,-17.83,-17.93,0,*63
1547834584.41,56890,0.0,0.0,-16.87,-17.83,-17.83,0,*6A
1547834585.65,56891,0.0,0.0,-16.85,-17.83,-17.79,0,*6C
1547834586.91,56892,0.0,0.0,-16.85,-17.79,-17.79,0,*6A
1547834588.15,56893,0.0,0.0,-16.85,-17.83,-17.79,0,*6E
1547834589.37,56894,0.0,0.0,-16.85,-17.83,-17.83,0,*6C
1547834590.64,56895,0.0,0.0,-16.87,-17.79,-17.83,0,*6A
1547834591.88,56896,0.0,0.0,-16.85,-17.83,-17.93,0,*6F
1547834593.1,56897,0.0,0.0,-16.85,-17.83,-18.07,0,*6C
1547834594.32,56898,0.0,0.0,-16.85,-18.07,-18.11,0,*67
1547834595.57,56899,0.0,0.0,-16.85,-17.97,-18.07,0,*67
1547834596.77,56900,0.0,0.0,-16.85,-18.11,-18.25,0,*67
1547834597.99,56901,0.0,0.0,-16.85,-18.07,-18.21,0,*65
1547834599.21,56902,0.0,0.0,-16.85,-18.21,-18.11,0,*61
1547834600.42,56903,0.0,0.0,-16.85,-18.11,-18.21,0,*60
1547834601.66,56904,0.0,0.0,-16.87,-18.21,-18.25,0,*62
1547834602.86,56905,0.0,0.0,-16.85,-18.21,-18.25,0,*61
1547834604.07,56906,0.0,0.0,-16.85,-18.25,-18.25,0,*66
1547834605.28,56907,0.0,0.0,-16.85,-18.21,-18.25,0,*63
1547834606.51,56908,0.0,0.0,-16.85,-18.35,-18.25,0,*69
1547834607.75,56909,0.0,0.0,-16.87,-18.25,-18.25,0,*6B
1547834608.99,56910,0.0,0.0,-16.85,-18.35,-18.21,0,*64
1547834610.2,56911,0.0,0.0,-16.85,-18.49,-18.41,0,*68
1547834611.43,56912,0.0,0.0,-16.85,-18.55,-18.49,0,*6E
1547834612.65,56913,0.0,0.0,-16.85,-18.41,-18.41,0,*62
1547834613.85,56914,0.0,0.0,-16.85,-18.25,-18.25,0,*65
1547834615.07,56915,0.0,0.0,-16.85,-18.11,-18.11,0,*64
1547834616.29,56916,0.0,0.0,-16.85,-18.07,-18.07,0,*67
1547834617.54,56917,0.0,0.0,-16.87,-17.83,-17.83,0,*64
1547834618.83,56918,0.0,0.0,-16.87,-17.93,-17.93,0,*6B
1547834620.08,56919,0.0,0.0,-16.85,-17.83,-17.97,0,*6D
1547834621.32,56920,0.0,0.0,-16.87,-18.07,-18.07,0,*60
1547834622.53,56921,0.0,0.0,-16.85,-18.11,-18.21,0,*60
1547834623.78,56922,0.0,0.0,-16.83,-18.01,-18.17,0,*61
1547834625.0,56923,0.0,0.0,-16.85,-18.07,-18.07,0,*61
1547834626.27,56924,0.0,0.0,-16.87,-17.97,-18.07,0,*62
1547834627.5,56925,0.0,0.0,-16.87,-18.11,-18.25,0,*62
1547834628.72,56926,0.0,0.0,-16.85,-18.11,-18.21,0,*67
1547834629.99,56927,0.0,0.0,-16.87,-18.07,-17.97,0,*61
1547834631.26,56928,0.0,0.0,-16.87,-17.97,-18.07,0,*6E
1547834632.55,56929,0.0,0.0,-16.87,-17.93,-17.93,0,*69
1547834633.8,56930,0.0,0.0,-16.87,-17.83,-17.83,0,*61
1547834635.02,56931,0.0,0.0,-16.85,-17.83,-17.83,0,*62
1547834636.27,56932,0.0,0.0,-16.87,-17.83,-17.83,0,*63
1547834637.53,56933,0.0,0.0,-16.85,-17.93,-17.93,0,*60
1547834638.8,56934,0.0,0.0,-16.85,-17.93,-17.97,0,*63
1547834640.05,56935,0.0,0.0,-16.87,-17.83,-17.83,0,*64
1547834641.34,56936,0.0,0.0,-16.87,-17.79,-17.79,0,*67
1547834642.6,56937,0.0,0.0,-16.87,-17.73,-17.79,0,*6C
1547834643.87,56938,0.0,0.0,-16.87,-17.73,-17.79,0,*63
1547834645.13,56939,0.0,0.0,-16.87,-17.79,-17.83,0,*6D
1547834646.42,56940,0.0,0.0,-16.87,-17.93,-17.93,0,*66
1547834647.64,56941,0.0,0.0,-16.85,-18.07,-18.11,0,*62
1547834648.88,56942,0.0,0.0,-16.87,-18.11,-18.21,0,*67
1547834650.12,56943,0.0,0.0,-16.87,-18.25,-18.25,0,*65
1547834651.36,56944,0.0,0.0,-16.87,-18.21,-18.21,0,*62
1547834652.6,56945,0.0,0.0,-16.87,-18.21,-18.11,0,*60
1547834653.9,56946,0.0,0.0,-16.87,-17.97,-17.97,0,*60
1547834655.17,56947,0.0,0.0,-16.87,-17.83,-17.93,0,*60
1547834656.41,56948,0.0,0.0,-16.89,-17.83,-17.79,0,*65
1547834657.65,56949,0.0,0.0,-16.89,-17.73,-17.79,0,*6B
1547834658.95,56950,0.0,0.0,-16.91,-18.01,-17.93,0,*64
1547834660.22,56951,0.0,0.0,-16.89,-17.93,-17.97,0,*6C
1547834661.52,56952,0.0,0.0,-16.91,-17.97,-17.97,0,*62
1547834662.77,56953,0.0,0.0,-16.89,-17.93,-17.83,0,*6B
1547834664.05,56954,0.0,0.0,-16.89,-17.97,-17.97,0,*6D
1547834665.3,56955,0.0,0.0,-16.89,-17.97,-18.07,0,*6A
1547834666.57,56956,0.0,0.0,-16.91,-18.01,-18.11,0,*67
1547834667.79,56957,0.0,0.0,-16.89,-17.83,-18.07,0,*6D
1547834669.09,56958,0.0,0.0,-16.91,-18.01,-18.01,0,*68
1547834670.39,56959,0.0,0.0,-16.91,-17.97,-17.97,0,*69
1547834671.62,56960,0.0,0.0,-16.89,-17.87,-17.87,0,*6A
1547834672.88,56961,0.0,0.0,-16.89,-17.79,-17.79,0,*6B
1547834674.15,56962,0.0,0.0,-16.91,-17.63,-17.69,0,*6B
1547834675.41,56963,0.0,0.0,-16.89,-17.63,-17.59,0,*60
1547834676.68,56964,0.0,0.0,-16.89,-17.63,-17.63,0,*6E
1547834677.91,56965,0.0,0.0,-16.89,-17.63,-17.73,0,*6E
1547834679.15,56966,0.0,0.0,-16.89,-17.63,-17.73,0,*6D
1547834680.39,56967,0.0,0.0,-16.89,-17.59,-17.73,0,*65
1547834681.61,56968,0.0,0.0,-16.89,-17.73,-17.73,0,*62
1547834682.82,56969,0.0,0.0,-16.89,-17.73,-17.73,0,*63
1547834684.11,56970,0.0,0.0,-16.87,-17.59,-17.59,0,*65
1547834685.4,56971,0.0,0.0,-16.87,-17.63,-17.63,0,*64
1547834686.69,56972,0.0,0.0,-16.87,-17.63,-17.63,0,*67
1547834687.92,56973,0.0,0.0,-16.87,-17.73,-17.73,0,*66
1547834689.16,56974,0.0,0.0,-16.87,-17.73,-17.73,0,*61
1547834690.42,56975,0.0,0.0,-16.87,-17.63,-17.73,0,*61
1547834691.71,56976,0.0,0.0,-16.87,-17.59,-17.63,0,*6A
1547834692.97,56977,0.0,0.0,-16.87,-17.63,-17.73,0,*63
1547834694.21,56978,0.0,0.0,-16.87,-17.73,-17.73,0,*6D
1547834695.47,56979,0.0,0.0,-16.89,-17.79,-17.79,0,*62
1547834696.74,56980,0.0,0.0,-16.87,-17.73,-17.79,0,*60
1547834698.03,56981,0.0,0.0,-16.87,-17.79,-17.79,0,*6B
1547834699.26,56982,0.0,0.0,-16.85,-17.79,-17.73,0,*60
1547834700.5,56983,0.0,0.0,-16.87,-17.73,-17.73,0,*69
1547834701.76,56984,0.0,0.0,-16.87,-17.73,-17.79,0,*64
1547834703.0,56985,0.0,0.0,-16.87,-17.73,-17.73,0,*6F
1547834704.29,56986,0.0,0.0,-16.87,-17.79,-17.79,0,*6C
1547834705.57,56987,0.0,0.0,-16.87,-17.79,-17.79,0,*6D
1547834706.86,56988,0.0,0.0,-16.87,-17.93,-17.93,0,*62
1547834708.11,56989,0.0,0.0,-16.85,-17.97,-18.07,0,*67
1547834709.4,56990,0.0,0.0,-16.87,-17.93,-17.93,0,*6B
1547834710.69,56991,0.0,0.0,-16.87,-17.93,-17.93,0,*6A
1547834711.91,56992,0.0,0.0,-16.89,-18.07,-18.11,0,*60
1547834713.16,56993,0.0,0.0,-16.89,-18.25,-18.35,0,*67
1547834714.37,56994,0.0,0.0,-16.89,-18.25,-18.25,0,*61
1547834715.59,56995,0.0,0.0,-16.89,-18.11,-18.11,0,*60
1547834716.86,56996,0.0,0.0,-16.87,-17.97,-18.07,0,*6B
1547834718.08,56997,0.0,0.0,-16.89,-18.07,-18.07,0,*62
1547834719.33,56998,0.0,0.0,-16.89,-18.07,-17.97,0,*6B
1547834720.57,56999,0.0,0.0,-16.91,-18.25,-18.25,0,*65
1547834721.78,57000,0.0,0.0,-16.89,-18.25,-18.25,0,*64
1547834723.03,57001,0.0,0.0,-16.91,-18.17,-18.07,0,*6D
1547834724.26,57002,0.0,0.0,-16.91,-18.17,-18.25,0,*6E
1547834725.48,57003,0.0,0.0,-16.89,-18.11,-18.17,0,*61
1547834726.75,57004,0.0,0.0,-16.89,-17.97,-17.97,0,*60
1547834728.0,57005,0.0,0.0,-16.91,-17.87,-17.87,0,*68
1547834729.23,57006,0.0,0.0,-16.89,-17.73,-17.83,0,*6D
1547834730.48,57007,0.0,0.0,-16.91,-17.83,-17.83,0,*6A
1547834731.73,57008,0.0,0.0,-16.91,-17.83,-17.83,0,*65
1547834733.02,57009,0.0,0.0,-16.91,-17.79,-17.79,0,*64
1547834734.27,57010,0.0,0.0,-16.91,-17.83,-17.83,0,*6C
1547834735.49,57011,0.0,0.0,-16.89,-17.73,-17.73,0,*64
1547834736.75,57012,0.0,0.0,-16.89,-17.79,-17.79,0,*67
1547834738.01,57013,0.0,0.0,-16.89,-17.79,-17.79,0,*66
1547834739.25,57014,0.0,0.0,-16.89,-17.73,-17.79,0,*6B
1547834740.51,57015,0.0,0.0,-16.91,-17.83,-17.87,0,*6D
1547834741.78,57016,0.0,0.0,-16.89,-17.97,-17.93,0,*67
1547834743.03,57017,0.0,0.0,-16.89,-17.97,-18.07,0,*64
1547834744.27,57018,0.0,0.0,-16.89,-17.79,-17.83,0,*68
1547834745.53,57019,0.0,0.0,-16.89,-17.79,-17.93,0,*68
1547834746.8,57020,0.0,0.0,-16.89,-17.93,-17.93,0,*66
1547834748.04,57021,0.0,0.0,-16.89,-17.83,-17.97,0,*62
1547834749.32,57022,0.0,0.0,-16.91,-18.01,-18.11,0,*6C
1547834750.59,57023,0.0,0.0,-16.87,-17.93,-18.11,0,*6E
1547834751.83,57024,0.0,0.0,-16.89,-17.97,-18.25,0,*64
1547834753.09,57025,0.0,0.0,-16.91,-18.25,-18.59,0,*61
1547834754.35,57026,0.0,0.0,-16.91,-18.59,-18.83,0,*6E
1547834755.64,57027,0.0,0.0,-16.87,-18.55,-18.89,0,*6E
1547834756.86,57028,0.0,0.0,-16.89,-18.83,-19.13,0,*66
1547834758.14,57029,0.0,0.0,-16.87,-19.13,-19.61,0,*64
1547834759.44,57030,0.0,0.0,-16.87,-19.31,-19.57,0,*69
1547834760.72,57031,0.0,0.0,-16.89,-19.31,-19.41,0,*61
1547834762.01,57032,0.0,0.0,-16.91,-19.23,-19.31,0,*6F
1547834763.28,57033,0.0,0.0,-16.91,-19.07,-19.23,0,*6B
1547834764.5,57034,0.0,0.0,-16.89,-19.03,-19.17,0,*66
1547834765.74,57035,0.0,0.0,-16.91,-19.03,-19.37,0,*6C
1547834767.02,57036,0.0,0.0,-16.91,-19.07,-19.31,0,*6D
1547834768.31,57037,0.0,0.0,-16.91,-18.93,-18.89,0,*62
1547834769.55,57038,0.0,0.0,-16.91,-19.03,-18.83,0,*6F
1547834770.81,57039,0.0,0.0,-16.91,-18.73,-18.55,0,*63
1547834772.03,57040,0.0,0.0,-16.89,-18.65,-18.49,0,*6E
1547834773.3,57041,0.0,0.0,-16.91,-18.59,-18.41,0,*61
1547834774.56,57042,0.0,0.0,-16.91,-18.55,-18.41,0,*6E
1547834775.83,57043,0.0,0.0,-16.91,-18.59,-18.69,0,*69
1547834777.1,57044,0.0,0.0,-16.95,-18.79,-18.93,0,*6D
1547834778.38,57045,0.0,0.0,-16.95,-18.93,-19.13,0,*61
1547834779.63,57046,0.0,0.0,-16.95,-19.13,-19.37,0,*6D
1547834780.94,57047,0.0,0.0,-16.95,-19.27,-19.27,0,*6A
1547834782.21,57048,0.0,0.0,-16.95,-19.13,-18.89,0,*67
1547834783.47,57049,0.0,0.0,-16.95,-18.89,-18.79,0,*6B
1547834784.72,57050,0.0,0.0,-16.95,-18.73,-18.65,0,*6B
1547834785.96,57051,0.0,0.0,-16.95,-18.49,-18.49,0,*6D
1547834787.18,57052,0.0,0.0,-16.97,-18.17,-18.17,0,*6C
1547834788.42,57053,0.0,0.0,-16.95,-18.17,-18.07,0,*6E
1547834789.69,57054,0.0,0.0,-16.95,-18.01,-18.17,0,*6F
1547834790.94,57055,0.0,0.0,-16.97,-18.01,-18.07,0,*6D
1547834792.15,57056,0.0,0.0,-16.97,-18.21,-18.21,0,*68
1547834793.43,57057,0.0,0.0,-16.95,-18.35,-18.45,0,*6C
1547834794.69,57058,0.0,0.0,-16.95,-18.73,-18.59,0,*6C
1547834795.93,57059,0.0,0.0,-16.95,-18.99,-18.79,0,*6B
1547834797.18,57060,0.0,0.0,-16.97,-19.27,-18.99,0,*69
1547834798.42,57061,0.0,0.0,-16.97,-19.13,-18.89,0,*6E
1547834799.67,57062,0.0,0.0,-16.97,-19.13,-18.89,0,*6D
1547834800.89,57063,0.0,0.0,-16.97,-18.99,-18.79,0,*60
1547834802.11,57064,0.0,0.0,-16.97,-18.79,-18.73,0,*63
1547834803.33,57065,0.0,0.0,-16.97,-18.79,-18.65,0,*65
1547834804.55,57066,0.0,0.0,-16.97,-18.79,-18.65,0,*66
1547834805.78,57067,0.0,0.0,-16.97,-18.49,-18.59,0,*6B
1547834807.06,57068,0.0,0.0,-16.97,-18.35,-18.35,0,*65
1547834808.3,57069,0.0,0.0,-16.95,-18.21,-18.21,0,*66
1547834809.55,57070,0.0,0.0,-16.99,-18.07,-18.07,0,*62
1547834810.8,57071,0.0,0.0,-16.99,-18.07,-18.17,0,*62
1547834812.05,57072,0.0,0.0,-16.97,-18.31,-18.21,0,*6F
1547834813.27,57073,0.0,0.0,-16.97,-18.17,-18.07,0,*6E
1547834814.51,57074,0.0,0.0,-16.97,-18.01,-18.07,0,*6E
1547834815.76,57075,0.0,0.0,-16.97,-18.07,-18.01,0,*6F
1547834816.98,57076,0.0,0.0,-16.97,-18.07,-18.17,0,*6B
1547834818.19,57077,0.0,0.0,-16.97,-18.21,-18.17,0,*6E
1547834819.47,57078,0.0,0.0,-16.97,-18.31,-18.35,0,*60
1547834820.72,57079,0.0,0.0,-16.97,-18.17,-18.31,0,*61
1547834821.97,57080,0.0,0.0,-16.97,-18.21,-18.31,0,*62
1547834823.27,57081,0.0,0.0,-16.95,-18.31,-18.31,0,*60
1547834824.52,57082,0.0,0.0,-16.95,-18.17,-18.21,0,*66
1547834825.73,57083,0.0,0.0,-16.97,-18.17,-18.21,0,*65
1547834826.95,57084,0.0,0.0,-16.97,-18.07,-18.17,0,*66
1547834828.16,57085,0.0,0.0,-16.97,-18.17,-18.17,0,*66
1547834829.41,57086,0.0,0.0,-16.97,-18.01,-18.07,0,*63
1547834830.66,57087,0.0,0.0,-16.95,-18.07,-18.07,0,*66
1547834831.93,57088,0.0,0.0,-16.97,-17.93,-17.93,0,*6B
1547834833.2,57089,0.0,0.0,-16.97,-18.01,-18.01,0,*6A
1547834834.49,57090,0.0,0.0,-16.95,-18.01,-17.93,0,*64
1547834835.72,57091,0.0,0.0,-16.97,-17.87,-17.87,0,*63
1547834836.97,57092,0.0,0.0,-16.95,-17.87,-17.83,0,*66
1547834838.22,57093,0.0,0.0,-16.95,-17.87,-17.83,0,*67
1547834839.47,57094,0.0,0.0,-16.95,-17.83,-17.87,0,*60
1547834840.72,57095,0.0,0.0,-16.95,-17.87,-17.87,0,*65
1547834841.95,57096,0.0,0.0,-16.97,-17.87,-17.87,0,*64
1547834843.2,57097,0.0,0.0,-16.95,-17.87,-17.87,0,*67
1547834844.42,57098,0.0,0.0,-16.97,-17.87,-17.87,0,*6A
1547834845.7,57099,0.0,0.0,-16.95,-17.87,-18.01,0,*68
1547834846.94,57100,0.0,0.0,-16.97,-17.87,-17.93,0,*6F
1547834848.21,57101,0.0,0.0,-16.95,-17.87,-18.01,0,*68
1547834849.51,57102,0.0,0.0,-16.95,-18.01,-18.01,0,*6A
1547834850.78,57103,0.0,0.0,-16.97,-18.01,-18.01,0,*69
1547834852.04,57104,0.0,0.0,-16.97,-17.93,-17.93,0,*6E
1547834853.34,57105,0.0,0.0,-16.95,-17.93,-17.93,0,*6D
1547834854.61,57106,0.0,0.0,-16.97,-18.01,-18.01,0,*6C
1547834855.88,57107,0.0,0.0,-16.97,-18.01,-18.01,0,*6D
1547834857.13,57108,0.0,0.0,-16.95,-17.83,-17.87,0,*64
1547834858.37,57109,0.0,0.0,-16.95,-17.73,-17.73,0,*61
1547834859.58,57110,0.0,0.0,-16.97,-17.69,-17.73,0,*60
1547834860.8,57111,0.0,0.0,-16.97,-17.73,-17.73,0,*6A
1547834862.07,57112,0.0,0.0,-16.95,-17.59,-17.73,0,*63
1547834863.31,57113,0.0,0.0,-16.95,-17.73,-17.73,0,*6A
1547834864.55,57114,0.0,0.0,-16.95,-17.69,-17.69,0,*6D
1547834865.8,57115,0.0,0.0,-16.95,-17.73,-17.83,0,*63
1547834867.09,57116,0.0,0.0,-16.91,-17.79,-17.79,0,*6B
1547834868.33,57117,0.0,0.0,-16.95,-17.73,-17.73,0,*6E
1547834869.58,57118,0.0,0.0,-16.91,-17.69,-17.69,0,*65
1547834870.85,57119,0.0,0.0,-16.91,-17.69,-17.63,0,*6E
1547834872.11,57120,0.0,0.0,-16.91,-17.69,-17.79,0,*6F
1547834873.37,57121,0.0,0.0,-16.91,-17.87,-17.83,0,*6B
1547834874.66,57122,0.0,0.0,-16.95,-17.93,-18.01,0,*6C
1547834875.93,57123,0.0,0.0,-16.97,-17.93,-17.93,0,*6B
1547834877.22,57124,0.0,0.0,-16.95,-18.01,-17.93,0,*6A
1547834878.49,57125,0.0,0.0,-16.97,-17.93,-17.93,0,*6D
1547834879.75,57126,0.0,0.0,-16.95,-17.87,-17.93,0,*69
1547834881.01,57127,0.0,0.0,-16.95,-17.87,-17.87,0,*6D
1547834882.23,57128,0.0,0.0,-16.97,-18.17,-18.07,0,*61
1547834883.5,57129,0.0,0.0,-16.97,-17.93,-18.01,0,*65
1547834884.76,57130,0.0,0.0,-16.97,-17.93,-17.93,0,*69
1547834886.01,57131,0.0,0.0,-16.95,-17.83,-17.83,0,*6A
1547834887.27,57132,0.0,0.0,-16.95,-17.87,-17.87,0,*69
1547834888.49,57133,0.0,0.0,-16.97,-17.83,-17.87,0,*6E
1547834889.74,57134,0.0,0.0,-16.95,-17.83,-17.83,0,*6F
1547834890.99,57135,0.0,0.0,-16.95,-17.73,-17.83,0,*61
1547834892.23,57136,0.0,0.0,-16.95,-17.73,-17.73,0,*6D
1547834893.49,57137,0.0,0.0,-16.91,-17.83,-17.83,0,*68
1547834894.74,57138,0.0,0.0,-16.95,-17.83,-17.87,0,*67
1547834896.01,57139,0.0,0.0,-16.95,-18.07,-18.01,0,*64
1547834897.28,57140,0.0,0.0,-16.97,-17.93,-17.93,0,*6E
1547834898.53,57141,0.0,0.0,-16.95,-17.83,-17.87,0,*69
1547834899.78,57142,0.0,0.0,-16.95,-17.83,-17.83,0,*6E
1547834901.03,57143,0.0,0.0,-16.95,-17.87,-17.83,0,*6B
1547834902.28,57144,0.0,0.0,-16.95,-17.73,-17.87,0,*63
1547834903.53,57145,0.0,0.0,-16.95,-18.07,-18.07,0,*69
1547834904.83,57146,0.0,0.0,-16.95,-17.93,-18.01,0,*6E
1547834906.08,57147,0.0,0.0,-16.95,-17.87,-17.87,0,*6B
1547834907.3,57148,0.0,0.0,-16.97,-17.83,-17.73,0,*69
1547834908.54,57149,0.0,0.0,-16.95,-17.73,-17.83,0,*6A
1547834909.79,57150,0.0,0.0,-16.95,-17.73,-17.83,0,*62
1547834911.04,57151,0.0,0.0,-16.95,-17.73,-17.83,0,*63
1547834912.29,57152,0.0,0.0,-16.95,-17.83,-17.87,0,*6B
1547834913.54,57153,0.0,0.0,-16.95,-17.73,-17.87,0,*65
1547834914.76,57154,0.0,0.0,-16.97,-17.73,-17.73,0,*6B
1547834916.0,57155,0.0,0.0,-16.95,-17.83,-17.73,0,*67
1547834917.25,57156,0.0,0.0,-16.91,-17.69,-17.69,0,*6F
1547834918.5,57157,0.0,0.0,-16.95,-17.73,-17.87,0,*61
1547834919.72,57158,0.0,0.0,-16.97,-17.73,-17.87,0,*6C
1547834920.96,57159,0.0,0.0,-16.95,-17.73,-17.69,0,*6F
1547834922.2,57160,0.0,0.0,-16.95,-17.69,-17.73,0,*65
1547834923.47,57161,0.0,0.0,-16.91,-17.69,-17.63,0,*61
1547834924.76,57162,0.0,0.0,-16.91,-17.63,-17.63,0,*68
1547834926.0,57163,0.0,0.0,-16.91,-17.69,-17.69,0,*69
1547834927.29,57164,0.0,0.0,-16.91,-17.63,-17.63,0,*6E
1547834928.59,57165,0.0,0.0,-16.91,-17.79,-17.79,0,*6F
1547834929.83,57166,0.0,0.0,-16.89,-17.73,-17.79,0,*6F
1547834931.12,57167,0.0,0.0,-16.91,-17.79,-17.79,0,*6D
1547834932.39,57168,0.0,0.0,-16.91,-17.83,-17.79,0,*67
1547834933.66,57169,0.0,0.0,-16.91,-17.69,-17.63,0,*69
1547834934.93,57170,0.0,0.0,-16.91,-17.83,-17.79,0,*6E
1547834936.2,57171,0.0,0.0,-16.91,-17.79,-17.83,0,*6F
1547834937.45,57172,0.0,0.0,-16.91,-17.83,-17.83,0,*69
1547834938.73,57173,0.0,0.0,-16.91,-17.87,-17.97,0,*69
1547834940.02,57174,0.0,0.0,-16.91,-18.01,-18.01,0,*6F
1547834941.27,57175,0.0,0.0,-16.91,-18.11,-18.11,0,*6E
1547834942.57,57176,0.0,0.0,-16.91,-18.01,-18.01,0,*6D
1547834943.86,57177,0.0,0.0,-16.95,-17.93,-18.01,0,*6C
1547834945.14,57178,0.0,0.0,-16.91,-17.97,-17.87,0,*62
1547834946.39,57179,0.0,0.0,-16.91,-17.87,-17.87,0,*62